Chicago, Illinois, United States (60601)
Lat: 41.85N, Lon: 87.65W
Wx Zone: ILZ014
Local Info
Past Weather Observations for Sunday, April 20, 2014

NOTE: This archive is for the closest National Weather Service station to Chicago. Information may differ from the station used for current weather conditions.

Time Weather Temperature Dewpoint Humidity Pressure Winds Precip Visibility
23:51
Overcast
66°F / 19°C 41°F / 5°C 40% 30.04 in
(1017 mb)
SW 9.2 mph
(SW 15 kph)
- 10SM
22:51
Overcast
66°F / 19°C 41°F / 5°C 40% 30.04 in
(1017 mb)
SSE 9.2 mph
(SSE 15 kph)
- 10SM
21:51
Mostly Cloudy
68°F / 20°C 39°F / 4°C 35% 30.04 in
(1017 mb)
S 11.5 mph
(S 19 kph)
- 10SM
20:51
Partly Cloudy
70°F / 21°C 39°F / 4°C 33% 30.04 in
(1017 mb)
SSE 9.2 mph
(SSE 15 kph)
- 10SM
19:51
Mostly Cloudy
72°F / 22°C 39°F / 4°C 31% 30.06 in
(1018 mb)
SE 6.9 mph
(SE 11 kph)
- 10SM
18:51
Partly Cloudy
73°F / 23°C 39°F / 4°C 29% 30.06 in
(1018 mb)
SSE 6.9 mph
(SSE 11 kph)
- 10SM
17:51
Mostly Cloudy
75°F / 24°C 39°F / 4°C 27% 30.06 in
(1018 mb)
S 6.9 mph
(S 11 kph)
- 10SM
16:51
Mostly Cloudy
79°F / 26°C 37°F / 3°C 23% 30.06 in
(1018 mb)
SW 13.8 mph
(SW 22 kph)
- 10SM
15:51
Partly Cloudy
79°F / 26°C 39°F / 4°C 24% 30.06 in
(1018 mb)
SW 12.7 mph
(SW 20 kph)
- 10SM
14:51
Mostly Cloudy
79°F / 26°C 39°F / 4°C 24% 30.09 in
(1019 mb)
S 13.8 mph
(S 22 kph)
- 10SM
13:51
Mostly Cloudy
77°F / 25°C 39°F / 4°C 26% 30.12 in
(1020 mb)
SSW 11.5 mph
(SSW 19 kph)
- 10SM
12:51
Mostly Cloudy
75°F / 24°C 39°F / 4°C 27% 30.15 in
(1021 mb)
SSW 11.5 mph
(SSW 19 kph)
- 10SM
11:51
Mostly Cloudy
73°F / 23°C 39°F / 4°C 29% 30.15 in
(1021 mb)
SSE 11.5 mph
(SSE 19 kph)
- 10SM
10:51
Mostly Cloudy
70°F / 21°C 37°F / 3°C 31% 30.18 in
(1022 mb)
S 13.8 mph
(S 22 kph)
- 10SM
09:51
Mostly Cloudy
66°F / 19°C 37°F / 3°C 35% 30.21 in
(1023 mb)
S 11.5 mph
(S 19 kph)
- 10SM
08:51
Mostly Cloudy
63°F / 17°C 36°F / 2°C 37% 30.21 in
(1023 mb)
S 11.5 mph
(S 19 kph)
- 10SM
07:51
Mostly Cloudy
57°F / 14°C 32°F / 0°C 39% 30.21 in
(1023 mb)
S 10.4 mph
(S 17 kph)
- 10SM
06:51
Mostly Cloudy
52°F / 11°C 28°F / -2°C 41% 30.24 in
(1024 mb)
S 9.2 mph
(S 15 kph)
- 10SM
05:51
Mostly Cloudy
46°F / 8°C 27°F / -3°C 46% 30.24 in
(1024 mb)
S 4.6 mph
(S 7 kph)
- 10SM
04:51
Partly Cloudy
46°F / 8°C 27°F / -3°C 46% 30.21 in
(1023 mb)
SSE 6.9 mph
(SSE 11 kph)
- 10SM
03:51
Partly Cloudy
48°F / 9°C 28°F / -2°C 46% 30.21 in
(1023 mb)
SSE 8.1 mph
(SSE 13 kph)
- 10SM
02:51
Partly Cloudy
50°F / 10°C 28°F / -2°C 43% 30.21 in
(1023 mb)
SSE 11.5 mph
(SSE 19 kph)
- 10SM
01:51
Partly Cloudy
52°F / 11°C 30°F / -1°C 44% 30.24 in
(1024 mb)
SSE 8.1 mph
(SSE 13 kph)
- 10SM
00:51
Partly Cloudy
54°F / 12°C 30°F / -1°C 41% 30.24 in
(1024 mb)
SE 10.4 mph
(SE 17 kph)
- 10SM
Time Weather Temperature Dewpoint Humidity Pressure Winds Precip Visibility


Weather for websites

WeatherForYou.com, LLC is not responsible for any damages or problems caused by this service. Current weather conditions are obtained from the closest station including government and personal stations which may have varying degrees of accuracy. Weather forecasts are derived from the NOAA NDFD. Like all things, this site belongs to Jesus Christ... He just trusts me to maintain it. If you have any questions or comments email webmaster@weatherforyou.com

Copyright © 2014, WeatherForYou.com LLC. All rights reserved.